[[{"header":{"parameterUnit":"m.s-1","parameterCategory":1,"la1":30.2991,"la2":30.254,"lo1":-89.0895,"lo2":-89.0444,"dy":0.0017,"dx":0.0017,"nx":28,"ny":28,"refTime":"2025-03-15T03:00:00:Z","depth":0,"parameterNumber":2,"parameterNumberName":"U-component_of_WINDS"},"data":[0,0,0,0,0,0,0,0,0,0,0,0,0,0,0,0,0,0,0,0,0,0,0,0,0,0,0,0,0,0,0,0,0,0,0,0,0,0,0,0,0,0,0,0,0,0,0,0,0,0,0,0,0,0,0,0,0,0,6.6875,6.6876,0,6.6965,6.6966,6.6967,6.6929,6.6927,6.6925,6.6923,6.7017,6.7021,6.7025,0,0,0,0,0,0,0,0,0,0,0,0,0,6.6674,6.6678,6.6875,6.6876,6.6878,6.6965,6.6966,6.6968,6.693,6.6927,6.6924,6.6922,6.7015,6.702,6.7026,0,0,0,0,0,0,0,0,0,0,0,0,0,6.6763,6.6679,6.6875,6.6869,6.6869,6.6965,6.6966,6.6968,6.693,6.6927,6.6924,6.6921,6.7013,6.702,6.7027,6.7134,0,0,6.7047,6.705,0,0,0,0,0,0,0,0,6.6758,6.677,6.6869,6.687,6.687,6.6933,6.693,6.7024,6.6931,6.6907,6.6923,6.6919,6.6991,6.7,6.7024,6.7138,6.7142,6.7048,6.7052,6.7055,6.7057,0,0,0,0,0,0,0,6.6752,6.6766,6.6911,6.687,6.6871,6.6863,6.6872,6.6947,6.6967,6.6909,6.6906,6.6918,6.6991,6.7017,6.7026,6.7143,6.7048,6.7054,6.7058,6.7061,6.7355,6.7358,0,0,0,0,0,0,6.6745,6.6761,6.6908,6.6914,6.6805,6.6869,6.6879,6.6916,6.6966,6.697,6.692,6.6915,6.7007,6.7018,6.7029,6.7161,6.7055,6.7061,6.7065,6.7351,6.7356,6.736,0,0,0,0,0,0,6.6741,6.6759,6.6904,6.6837,6.6855,6.6876,6.6918,6.6919,6.6946,6.6974,6.6977,6.6943,6.7005,6.7019,6.7109,6.7163,6.7064,6.707,6.7347,6.7352,6.7358,6.7423,0,0,0,0,0,0,6.6735,6.6757,6.6797,6.6838,6.6858,6.6982,6.6921,6.6924,6.6957,6.6952,6.6997,6.7001,6.7004,6.7099,6.7116,6.7171,6.7076,6.7342,6.7349,6.7356,6.7416,6.743,6.7442,0,0,0,0,0,6.6728,6.6811,6.6799,6.6817,6.6909,6.6985,6.6997,6.6998,6.6962,6.7003,6.7022,6.7,6.7154,6.7108,6.7127,6.7185,6.7338,6.7347,6.7355,6.741,6.7427,6.7442,0,0,0,0,0,0,6.6775,6.6816,6.6803,6.6902,6.694,6.6978,6.703,6.7015,6.7065,6.7058,6.7058,6.7068,6.7162,6.7182,6.713,6.7293,6.7241,6.7254,6.7277,6.7293,6.7306,6.73,6.7081,0,0,0,0,0,6.6797,6.6855,6.6888,6.6972,6.6992,6.7008,6.7041,6.7039,6.7079,6.7095,6.712,6.7161,6.7219,6.7257,6.7311,6.7419,6.743,6.7468,6.7481,6.7492,6.7503,6.7565,6.7584,6.7387,6.7387,6.7387,0,0,6.6843,6.6873,6.6909,6.6982,6.7012,6.7073,6.7022,6.7088,6.7134,6.7105,6.7192,6.7212,6.7257,6.7357,6.7403,6.7377,6.756,6.7503,6.7511,6.7516,6.7576,6.7595,6.7611,6.7393,6.7392,6.7391,0,0,6.6959,6.6985,6.706,6.7091,6.7137,6.7148,6.7166,6.7207,6.722,6.7307,6.7287,6.7343,6.7442,6.7476,6.7507,6.7639,6.7622,6.7657,6.7726,6.7786,6.7802,6.7816,6.7866,6.7884,6.7668,6.7668,6.7668,0,6.701,6.7101,6.71,6.717,6.7204,6.7181,6.7258,6.7288,6.735,6.7375,6.7345,6.7472,6.75,6.761,6.7643,6.7667,6.769,6.7652,6.78,6.7813,6.7826,6.7874,6.7893,6.7672,6.7672,6.7671,6.7671,0,6.7164,6.7227,6.7282,6.7344,6.7384,6.7456,6.7469,6.751,6.7505,6.7519,6.7611,6.7644,6.7707,6.7733,6.7728,6.7843,6.7827,6.7799,6.7746,6.7849,6.7895,6.7913,6.7678,6.7677,6.7676,6.7675,0,0,6.731,6.7372,6.7393,6.7422,6.7472,6.7522,6.7595,6.7657,6.7694,6.7738,6.7801,6.7887,6.7863,6.7897,6.7897,6.795,6.8057,6.7915,6.7917,6.7943,6.819,6.8212,6.8233,6.8045,6.8049,6.8051,6.8187,0,6.7432,6.7559,6.7563,6.768,6.7741,6.7722,6.7786,6.7825,6.7841,6.7897,6.7915,6.7977,6.7938,6.796,6.8011,6.8033,6.8107,6.8023,6.8106,6.8109,6.8098,6.8256,6.8279,6.8405,6.8204,6.8207,6.8209,0,6.759,6.764,6.7764,6.781,6.7835,6.7893,6.7952,6.8004,6.8049,6.8057,6.8098,6.809,6.8168,6.8113,6.8221,6.8164,6.8198,6.8215,6.822,6.8229,6.8167,6.8272,6.8445,6.8465,6.8237,6.8234,6.8232,0,6.7688,6.7787,6.7875,6.79,6.7954,6.7996,6.802,6.8062,6.81,6.8152,6.8177,6.8237,6.8271,6.8319,6.8329,6.8287,6.8439,6.8383,6.845,6.845,6.8483,6.8482,6.8667,6.8502,6.8502,6.8502,6.8501,0,6.7825,6.7902,6.792,6.7975,6.8062,6.8066,6.8153,6.8174,6.8212,6.8272,6.8259,6.8315,6.8324,6.8384,6.8392,6.8482,6.8497,6.8508,6.8509,6.851,6.8509,6.8534,6.8526,6.8507,6.8506,6.8505,6.8504,0,6.795,6.7964,6.806,6.8104,6.8117,6.818,6.8218,6.8272,6.8287,6.8363,6.8381,6.8406,6.8476,6.8491,6.8573,6.8579,6.8687,6.8679,6.8672,6.8672,6.8739,6.8734,6.8948,6.8978,6.8792,6.8794,6.8795,0,6.8037,6.8096,6.8147,6.8187,6.8214,6.8276,6.8316,6.8323,6.8365,6.8423,6.847,6.8538,6.8593,6.8706,6.8733,6.8797,6.8791,6.8862,6.8801,6.8801,6.8796,6.8793,6.8801,6.8875,6.8877,6.8878,6.8879,0,6.8191,6.8196,6.8253,6.8315,6.8363,6.8411,6.8457,6.849,6.8504,6.8552,6.8623,6.8666,6.8752,6.8821,6.8885,6.8912,6.89,6.8899,6.8918,6.892,6.8915,6.8922,6.8707,6.8894,6.8892,6.8891,6.8891,6.889,6.8302,6.8355,6.8401,6.8466,6.8502,6.8546,6.8599,6.8622,6.8682,6.8752,6.8752,6.8831,6.8878,6.8964,6.8995,6.9058,6.9036,6.9063,6.9071,6.9078,6.9086,6.8904,6.9069,6.9069,6.9069,6.9068,6.9068,0,6.8458,6.8487,6.8547,6.8613,6.8665,6.8648,6.8699,6.8744,6.8814,6.8858,6.8913,6.8998,6.9065,6.9098,6.9166,6.921,6.9207,6.9228,6.9226,6.9233,6.91,6.9078,6.923,6.923,6.923,6.923,6.923,6.923,6.8546,6.8636,6.8648,6.8757,6.8785,6.8863,6.8894,6.8936,6.8972,6.9066,6.9122,6.9143,6.9184,6.9255,6.9318,6.9326,6.9352,6.9378,6.9383,6.9258,6.9242,6.9226,6.9206,6.9383,6.9383,6.9512,6.9513,6.9514]},{"header":{"parameterUnit":"m.s-1","parameterCategory":1,"la1":30.2991,"la2":30.254,"lo1":-89.0895,"lo2":-89.0444,"dy":0.0017,"dx":0.0017,"nx":28,"ny":28,"refTime":"2025-03-15T03:00:00:Z","depth":0,"parameterNumber":3,"parameterNumberName":"V-component_of_WINDS"},"data":[0,0,0,0,0,0,0,0,0,0,0,0,0,0,0,0,0,0,0,0,0,0,0,0,0,0,0,0,0,0,0,0,0,0,0,0,0,0,0,0,0,0,0,0,0,0,0,0,0,0,0,0,0,0,0,0,0,0,-1.3882,-1.3881,0,-1.379,-1.3789,-1.3788,-1.3813,-1.3815,-1.3817,-1.3819,-1.3716,-1.3712,-1.3707,0,0,0,0,0,0,0,0,0,0,0,0,0,-1.4074,-1.407,-1.3882,-1.3881,-1.388,-1.379,-1.3789,-1.3787,-1.3813,-1.3815,-1.3817,-1.382,-1.3717,-1.3712,-1.3707,0,0,0,0,0,0,0,0,0,0,0,0,0,-1.3987,-1.4069,-1.3882,-1.3882,-1.3881,-1.379,-1.3789,-1.3787,-1.3812,-1.3815,-1.3818,-1.3821,-1.3719,-1.3713,-1.3706,-1.3608,0,0,-1.3685,-1.3682,0,0,0,0,0,0,0,0,-1.3992,-1.398,-1.3883,-1.3882,-1.3881,-1.3816,-1.3819,-1.3727,-1.3812,-1.3838,-1.3819,-1.3822,-1.3746,-1.3738,-1.3714,-1.3603,-1.3598,-1.3685,-1.3681,-1.3678,-1.3676,0,0,0,0,0,0,0,-1.3998,-1.3984,-1.3845,-1.3882,-1.388,-1.3884,-1.3875,-1.3801,-1.3777,-1.3836,-1.3838,-1.3827,-1.3746,-1.372,-1.3712,-1.3597,-1.3685,-1.3679,-1.3675,-1.3672,-1.3401,-1.3398,0,0,0,0,0,0,-1.4006,-1.3988,-1.3848,-1.3843,-1.3944,-1.3878,-1.3868,-1.3834,-1.3778,-1.3773,-1.3825,-1.3828,-1.373,-1.3719,-1.3708,-1.359,-1.3678,-1.3672,-1.3668,-1.3404,-1.3401,-1.3397,0,0,0,0,0,0,-1.401,-1.3993,-1.3852,-1.3916,-1.3898,-1.3872,-1.3833,-1.383,-1.3805,-1.377,-1.3765,-1.3803,-1.3732,-1.3718,-1.3633,-1.3587,-1.3668,-1.3662,-1.3408,-1.3403,-1.3399,-1.3352,0,0,0,0,0,0,-1.4015,-1.3994,-1.3958,-1.3915,-1.3895,-1.378,-1.383,-1.3827,-1.3794,-1.3798,-1.3748,-1.3742,-1.3733,-1.3643,-1.3627,-1.3579,-1.3657,-1.3412,-1.3406,-1.34,-1.3358,-1.3346,-1.3337,0,0,0,0,0,-1.4022,-1.3946,-1.3956,-1.3939,-1.385,-1.3778,-1.3766,-1.376,-1.379,-1.3753,-1.373,-1.3744,-1.3595,-1.3634,-1.3616,-1.3565,-1.3415,-1.3408,-1.3401,-1.3362,-1.3349,-1.3337,0,0,0,0,0,0,-1.3981,-1.3941,-1.3951,-1.386,-1.3823,-1.3782,-1.3735,-1.3745,-1.3696,-1.3701,-1.3693,-1.3682,-1.3595,-1.3572,-1.3617,-1.3468,-1.3509,-1.3498,-1.3486,-1.3473,-1.3462,-1.3469,-1.3651,0,0,0,0,0,-1.3962,-1.391,-1.3876,-1.3799,-1.378,-1.3761,-1.3729,-1.3728,-1.3688,-1.3671,-1.3642,-1.3601,-1.3545,-1.3507,-1.3454,-1.3355,-1.3344,-1.3311,-1.3301,-1.3292,-1.3282,-1.3229,-1.3213,-1.3374,-1.3374,-1.3374,0,0,-1.3921,-1.3893,-1.3859,-1.379,-1.3761,-1.3705,-1.3747,-1.3685,-1.3643,-1.3661,-1.358,-1.3558,-1.3511,-1.3419,-1.3377,-1.3397,-1.3236,-1.3283,-1.3277,-1.3271,-1.322,-1.3205,-1.3191,-1.3369,-1.337,-1.3371,0,0,-1.3818,-1.3792,-1.3725,-1.3696,-1.3652,-1.364,-1.3624,-1.3583,-1.357,-1.349,-1.3502,-1.3451,-1.3354,-1.332,-1.329,-1.3177,-1.3187,-1.3159,-1.3104,-1.3052,-1.3039,-1.3028,-1.2987,-1.2973,-1.315,-1.3149,-1.3149,0,-1.3772,-1.369,-1.3689,-1.3627,-1.3596,-1.3613,-1.3544,-1.3515,-1.3455,-1.3432,-1.3456,-1.3336,-1.3305,-1.3206,-1.3179,-1.3154,-1.3135,-1.3164,-1.3042,-1.303,-1.302,-1.2981,-1.2965,-1.3146,-1.3147,-1.3147,-1.3147,0,-1.3636,-1.3579,-1.353,-1.3475,-1.3438,-1.3373,-1.336,-1.3323,-1.3325,-1.331,-1.3228,-1.3193,-1.3132,-1.3109,-1.3109,-1.301,-1.3023,-1.3044,-1.3085,-1.3001,-1.2964,-1.2949,-1.3142,-1.3143,-1.3144,-1.3145,0,0,-1.3502,-1.345,-1.3432,-1.3408,-1.3362,-1.3317,-1.3252,-1.3197,-1.3165,-1.3123,-1.3068,-1.2987,-1.3007,-1.2973,-1.2969,-1.2924,-1.2836,-1.295,-1.2949,-1.293,-1.2725,-1.2709,-1.2692,-1.2844,-1.2841,-1.2839,-1.2729,0,-1.3395,-1.3285,-1.3282,-1.318,-1.3128,-1.3144,-1.3087,-1.3052,-1.3037,-1.2988,-1.297,-1.2913,-1.2943,-1.2923,-1.2879,-1.2856,-1.2795,-1.2864,-1.279,-1.2788,-1.2802,-1.2673,-1.2655,-1.2553,-1.2714,-1.2712,-1.271,0,-1.3255,-1.3213,-1.3106,-1.307,-1.3047,-1.2997,-1.2947,-1.2901,-1.2861,-1.2852,-1.2816,-1.282,-1.2752,-1.2797,-1.2703,-1.2751,-1.272,-1.2705,-1.2701,-1.2693,-1.2743,-1.2661,-1.2521,-1.2505,-1.2687,-1.2689,-1.2691,0,-1.3169,-1.3085,-1.3011,-1.2989,-1.2945,-1.2909,-1.2888,-1.2852,-1.2819,-1.2774,-1.2752,-1.2698,-1.2669,-1.2626,-1.2615,-1.2649,-1.2521,-1.2565,-1.2511,-1.2511,-1.2483,-1.2484,-1.2335,-1.2464,-1.2464,-1.2465,-1.2465,0,-1.3049,-1.2983,-1.2972,-1.2926,-1.2852,-1.2849,-1.2776,-1.2757,-1.2725,-1.2675,-1.2684,-1.2636,-1.2625,-1.2574,-1.2564,-1.2488,-1.2474,-1.2465,-1.2463,-1.2464,-1.2465,-1.2443,-1.2449,-1.246,-1.2461,-1.2462,-1.2463,0,-1.294,-1.293,-1.285,-1.2815,-1.2805,-1.2752,-1.2722,-1.2677,-1.2664,-1.26,-1.2584,-1.2562,-1.2503,-1.2489,-1.2417,-1.241,-1.232,-1.2325,-1.2335,-1.2335,-1.2282,-1.2287,-1.2113,-1.209,-1.2234,-1.2233,-1.2232,0,-1.2864,-1.2815,-1.2776,-1.2744,-1.2723,-1.2671,-1.2639,-1.2634,-1.2599,-1.2551,-1.2512,-1.2455,-1.2409,-1.2313,-1.2289,-1.2234,-1.2238,-1.2181,-1.2229,-1.2232,-1.2237,-1.224,-1.2235,-1.2171,-1.2169,-1.2168,-1.2167,0,-1.2731,-1.2729,-1.2683,-1.2635,-1.2597,-1.2559,-1.2522,-1.2495,-1.2484,-1.2445,-1.2386,-1.2351,-1.228,-1.2222,-1.2168,-1.2144,-1.2153,-1.2153,-1.2137,-1.2137,-1.2145,-1.214,-1.2309,-1.2156,-1.2157,-1.2158,-1.2159,-1.2159,-1.2636,-1.2593,-1.2559,-1.2508,-1.2481,-1.2447,-1.2403,-1.2386,-1.2338,-1.2282,-1.2281,-1.2217,-1.2179,-1.2107,-1.2081,-1.2029,-1.2046,-1.2024,-1.2018,-1.2013,-1.2008,-1.2154,-1.2019,-1.2019,-1.202,-1.202,-1.202,0,-1.2503,-1.2483,-1.2436,-1.2386,-1.2345,-1.2361,-1.2322,-1.2286,-1.2231,-1.2195,-1.2151,-1.2084,-1.2029,-1.2001,-1.1946,-1.1911,-1.1913,-1.1896,-1.1898,-1.1893,-1.1996,-1.2015,-1.1895,-1.1895,-1.1895,-1.1895,-1.1895,-1.1895,-1.2429,-1.2358,-1.2352,-1.2266,-1.2246,-1.2186,-1.2162,-1.213,-1.2102,-1.2028,-1.1983,-1.1967,-1.1935,-1.1878,-1.1828,-1.1821,-1.18,-1.178,-1.1776,-1.1873,-1.1885,-1.1897,-1.1915,-1.1776,-1.1776,-1.1677,-1.1676,-1.1675]}]]